Date String (YYYY-MM-DD hh:mm:ss) UTC,Instrument flags,Ambient pressure (hPa),Sample flow (lpm),Bypass flow (lpm),Sample temperature (°C),Ambient temperature (°C),ASC tube jacket temperature (°C),LED temperature (°C),Box temperature (°C),Sample RH (%),Span deviation,Mass concentration (μg/m³),Mass concentration (μg/m³),Mass concentration (μg/m³)
DateTimeUTC,F1_M11,P_M11,Q1_M11,Q2_M11,T1_M11,T2_M11,T3_M11,T4_M11,T5_M11,U1_M11,ZSPAN_M11,X0_M11,X2_M11,X1_M11
2021-09-15 12:00:00,,0826.7,4.99,0.00,29.1,28.5,00.0,38.3,30.9,26.5,0001.9,0015.46,0008.86,0007.87
2021-09-15 12:01:00,,0826.7,5.02,0.00,29.1,28.4,00.0,38.3,30.9,26.8,0002.0,0015.34,0008.90,0007.86
2021-09-15 12:02:00,,0826.7,4.99,0.00,29.1,28.4,00.0,38.3,30.9,26.9,0002.0,0015.69,0008.90,0007.85
2021-09-15 12:03:00,,0826.7,5.01,0.00,29.1,28.4,00.0,38.3,30.9,26.7,0002.3,0015.60,0008.88,0007.84
2021-09-15 12:04:00,,0826.7,4.99,0.00,29.1,28.4,00.0,38.3,30.9,26.7,0002.9,0015.27,0008.83,0007.83
2021-09-15 12:05:00,,0826.7,5.00,0.00,29.2,28.5,00.0,38.3,30.9,26.3,0003.0,0014.97,0008.80,0007.82
2021-09-15 12:06:00,,0826.7,5.00,0.00,29.2,28.5,00.0,38.3,30.9,25.8,0003.2,0015.13,0008.82,0007.82
2021-09-15 12:07:00,,0826.6,5.00,0.00,29.2,28.5,00.0,38.3,30.9,25.8,0003.4,0014.63,0008.85,0007.84
2021-09-15 12:08:00,,0826.7,5.00,0.00,29.1,28.4,00.0,38.3,30.9,26.0,0003.6,0014.57,0008.88,0007.84
2021-09-15 12:09:00,,0826.7,4.99,0.00,29.1,28.4,00.0,38.3,30.9,26.0,0003.6,0014.64,0008.89,0007.83
2021-09-15 12:10:00,,0826.7,5.00,0.00,29.1,28.4,00.0,38.3,30.8,25.8,0003.3,0014.67,0008.93,0007.85
2021-09-15 12:11:00,,0826.7,5.00,0.00,29.1,28.4,00.0,38.3,30.9,25.3,0002.8,0014.70,0008.98,0007.87
2021-09-15 12:12:00,,0826.7,5.01,0.00,29.1,28.4,00.0,38.3,30.9,24.9,0002.9,0015.21,0008.96,0007.89
2021-09-15 12:13:00,,0826.7,5.00,0.00,29.1,28.4,00.0,38.3,30.9,24.4,0002.9,0014.81,0008.97,0007.91
2021-09-15 12:14:00,,0826.6,5.00,0.00,29.2,28.5,00.0,38.3,30.9,24.4,0002.7,0015.02,0009.06,0007.95
2021-09-15 12:15:00,,0826.7,5.00,0.00,29.2,28.5,00.0,38.3,31.0,24.3,0002.4,0015.02,0009.10,0007.98
2021-09-15 12:16:00,,0826.7,5.00,0.00,29.2,28.5,00.0,38.3,31.0,24.3,0002.1,0015.34,0009.12,0008.00
2021-09-15 12:17:00,,0826.6,5.01,0.00,29.2,28.5,00.0,38.3,31.0,24.4,0001.5,0015.79,0009.16,0008.02
2021-09-15 12:18:00,,0826.7,5.00,0.00,29.2,28.5,00.0,38.3,31.0,24.3,0001.7,0016.13,0009.16,0008.02
2021-09-15 12:19:00,,0826.7,4.99,0.00,29.2,28.5,00.0,38.3,31.0,24.0,0001.8,0016.27,0009.16,0008.04
2021-09-15 12:20:00,,0826.7,5.01,0.00,29.2,28.5,00.0,38.3,31.0,24.0,0001.8,0016.20,0009.16,0008.06
2021-09-15 12:21:00,,0826.6,4.99,0.00,29.2,28.5,00.0,38.3,30.9,23.6,0002.0,0016.21,0009.15,0008.05
2021-09-15 12:22:00,,0826.7,4.99,0.00,29.2,28.5,00.0,38.3,30.9,23.4,0002.2,0016.11,0009.11,0008.04
2021-09-15 12:23:00,,0826.7,5.01,0.00,29.2,28.5,00.0,38.3,31.0,23.6,0002.3,0015.54,0009.13,0008.06
2021-09-15 12:24:00,,0826.7,5.00,0.00,29.2,28.5,00.0,38.3,30.9,23.8,0002.6,0015.12,0009.08,0008.05
2021-09-15 12:25:00,,0826.7,5.00,0.00,29.2,28.4,00.0,38.3,30.9,24.0,0002.5,0015.28,0008.96,0008.05
2021-09-15 12:26:00,,0826.7,5.01,0.00,29.1,28.4,00.0,38.3,30.9,23.9,0002.4,0015.38,0008.94,0008.04
2021-09-15 12:27:00,,0826.7,5.02,0.00,29.1,28.4,00.0,38.3,30.9,23.8,0002.6,0015.41,0008.95,0008.03
2021-09-15 12:28:00,,0826.7,5.00,0.00,29.1,28.4,00.0,38.3,30.9,23.9,0002.9,0014.71,0008.92,0008.02
2021-09-15 12:29:00,,0826.7,5.00,0.00,29.1,28.4,00.0,38.3,30.9,24.7,0002.9,0014.39,0008.92,0008.01
2021-09-15 12:30:00,,0826.7,5.00,0.00,29.1,28.4,00.0,38.3,30.9,24.7,0002.7,0014.01,0008.86,0007.99
2021-09-15 12:31:00,,0826.7,5.00,0.00,29.2,28.5,00.0,38.3,30.9,24.9,0002.7,0014.28,0008.86,0007.98
2021-09-15 12:32:00,,0826.7,5.01,0.00,29.2,28.5,00.0,38.3,31.0,25.3,0002.8,0015.39,0008.84,0007.95
2021-09-15 12:33:00,,0826.7,4.99,0.00,29.2,28.5,00.0,38.3,31.0,25.8,0002.8,0015.66,0008.84,0007.92
2021-09-15 12:34:00,,0826.7,5.00,0.00,29.2,28.5,00.0,38.3,31.0,26.1,0002.5,0015.66,0008.76,0007.89
2021-09-15 12:35:00,,0826.7,5.01,0.00,29.2,28.5,00.0,38.3,31.0,28.4,0002.4,0015.77,0008.81,0007.90
2021-09-15 12:36:00,,0826.7,5.00,0.00,29.2,28.5,00.0,38.3,31.0,28.0,0002.3,0016.20,0008.89,0007.93
2021-09-15 12:37:00,,0826.6,4.99,0.00,29.2,28.5,00.0,38.3,31.0,27.2,0002.4,0016.23,0008.93,0007.93
2021-09-15 12:38:00,,0826.7,5.00,0.00,29.2,28.5,00.0,38.3,31.0,27.0,0002.0,0016.01,0008.93,0007.93
2021-09-15 12:39:00,,0826.7,5.01,0.00,29.2,28.5,00.0,38.3,31.0,26.8,0002.0,0015.90,0008.90,0007.96
2021-09-15 12:40:00,,0826.7,5.00,0.00,29.2,28.5,00.0,38.3,31.0,27.8,0001.9,0016.77,0008.89,0007.98
2021-09-15 12:41:00,,0826.6,5.01,0.00,29.2,28.5,00.0,38.3,31.0,28.4,0001.8,0017.11,0008.93,0008.00
2021-09-15 12:42:00,,0826.7,5.01,0.00,29.3,28.5,00.0,38.3,31.0,28.4,0001.6,0016.98,0008.98,0008.05
2021-09-15 12:43:00,,0826.6,4.99,0.00,29.3,28.5,00.0,38.3,31.0,28.5,0001.3,0015.96,0009.02,0008.08
2021-09-15 12:44:00,,0826.6,5.01,0.00,29.2,28.5,00.0,38.3,31.0,28.6,0001.3,0015.70,0009.01,0008.13
2021-09-15 12:45:00,,0826.6,4.99,0.00,29.2,28.5,00.0,38.3,31.0,29.0,0001.2,0015.65,0009.12,0008.17
2021-09-15 12:46:00,,0826.7,4.99,0.00,29.2,28.5,00.0,38.3,31.0,29.3,0001.1,0015.36,0009.10,0008.18
2021-09-15 12:47:00,,0826.7,5.01,0.00,29.2,28.5,00.0,38.4,31.0,29.1,0001.4,0014.58,0009.08,0008.17
2021-09-15 12:48:00,,0826.7,4.99,0.00,29.2,28.5,00.0,38.4,30.9,28.7,0001.4,0015.12,0009.05,0008.18
2021-09-15 12:49:00,,0826.7,5.00,0.00,29.2,28.4,00.0,38.4,30.9,28.8,0001.6,0015.66,0009.10,0008.20
2021-09-15 12:50:00,,0826.6,5.01,0.00,29.1,28.4,00.0,38.3,30.8,28.9,0001.4,0015.82,0009.13,0008.20
2021-09-15 12:51:00,,0826.5,4.99,0.00,29.1,28.3,00.0,38.3,30.8,27.2,0001.3,0014.95,0009.14,0008.19
2021-09-15 12:52:00,,0826.5,5.00,0.00,29.1,28.3,00.0,38.3,30.8,26.5,0001.5,0014.85,0009.22,0008.20
2021-09-15 12:53:00,,0826.5,5.01,0.00,29.1,28.3,00.0,38.3,30.8,26.5,0001.8,0014.76,0009.19,0008.19
2021-09-15 12:54:00,,0826.6,5.01,0.00,29.1,28.3,00.0,38.3,30.8,25.7,0001.9,0014.74,0009.20,0008.18
2021-09-15 12:55:00,,0826.5,5.00,0.00,29.0,28.3,00.0,38.3,30.7,25.1,0001.9,0014.85,0009.25,0008.17
2021-09-15 12:56:00,,0826.5,5.00,0.00,29.0,28.2,00.0,38.3,30.7,24.4,0001.5,0014.97,0009.23,0008.16
2021-09-15 12:57:00,,0826.5,5.01,0.00,29.0,28.2,00.0,38.2,30.7,23.0,0001.4,0015.01,0009.24,0008.16
2021-09-15 12:58:00,,0826.5,4.99,0.00,29.0,28.2,00.0,38.2,30.7,22.9,0001.2,0014.90,0009.19,0008.16
2021-09-15 12:59:00,,0826.5,5.01,0.00,29.0,28.3,00.0,38.2,30.8,22.7,0001.1,0014.48,0009.19,0008.14
